User: anonymous   Login
Location: Anglesey
(53.1800°N, 4.2200°W)
Time: 09:13:20
(UTC+01:00)
Language:

OTV 5 (USA 277) - Orbit

View from above orbital plane
View from above orbital plane
View from above satellite
View from above satellite

Ground track
Ground track

The orbit data is extracted from the following two-line orbital elements,

1 42932U 17052A   18170.93337216 0.00000000  00000-0  00000-0 0    09
2 42932  54.5145 165.2907 0004791  25.9515 334.0484 15.84843687    04
Epoch (UTC): 19 June 2018 22:24:03
Eccentricity: 0.0004791
inclination: 54.5145°
perigee height: 313 km
apogee height: 320 km
right ascension of ascending node: 165.2907°
argument of perigee: 25.9515°
revolutions per day: 15.84843687
mean anomaly at epoch: 334.0484°
orbit number at epoch: 0

The dashed part of the orbit path shows where the satellite is in the earth's shadow,  

DLR